Weather History for KMQB - October, 2012

Change the Weather History Date:

Tuesday, October 9, 2012

  Actual Average (KBRL) Record (KBRL)
Temperature  
Mean Temperature 55 °F 58 °F  
Max Temperature 69 °F 69 °F 90 °F (1938)
Min Temperature 42 °F 47 °F 27 °F (1945)
Degree Days  
Heating Degree Days 10 8  
Month to date heating degree days 63  
Since 1 July heating degree days 134  
Cooling Degree Days 0 1  
Month to date cooling degree days 12  
Year to date cooling degree days 1194  
Growing Degree Days 5 (Base 50)    
Moisture  
Dew Point 40 °F    
Average Humidity 66    
Maximum Humidity 99    
Minimum Humidity 35    
Precipitation  
Precipitation 0.11 in 0.11 in 0.58 in (1993)
Month to date precipitation 0.98  
Year to date precipitation 31.75  
Sea Level Pressure  
Sea Level Pressure 29.96 in    
Wind  
Wind Speed 11 mph (SW)    
Max Wind Speed 26 mph    
Max Gust Speed 37 mph    
Visibility 10 miles    
Events Rain    
T = Trace of Precipitation, MM = Missing Value Source: NWS Daily Summary

Daily Weather History Graph

Daily Weather History Graph

Search for Another Location

Airport or City:

Trip Planner

Search our weather history database for the weather conditions in past years. The results will help you decide how hot, cold, wet, or windy it might be!

Date:

Astronomy

Oct. 09, 2012 Rise Set
Actual Time 7:07 AM CDT 6:30 PM CDT
Civil Twilight 6:40 AM CDT 6:58 PM CDT
Nautical Twilight 6:08 AM CDT 7:29 PM CDT
Astronomical Twilight 5:37 AM CDT 8:01 PM CDT
Moon 12:43 AM CDT (10/9) 2:59 PM CDT (10/9)
Length of Visible Light 12h 17m
Length of Day
11h 23m
Last Quarter, 36% of the Moon is Illuminated
Oct 9
Last Quarter
Oct 15
New
Oct 21
First Quarter
Oct 29
Full
Nov 6
Last Quarter

Hourly Weather History & Observations

Time (CDT) Temp. Windchill Dew Point Humidity Pressure Visibility Wind Dir Wind Speed Gust Speed Precip Events Conditions
12:15 AM 46.8 °F - 34.9 °F 63% 30.02 in 10.0 mi South 8.1 mph - N/A   Clear
12:35 AM 45.5 °F 40.8 °F 35.1 °F 67% 30.01 in 10.0 mi South 9.2 mph - N/A   Clear
12:55 AM 45.5 °F 40.8 °F 35.1 °F 67% 30.00 in 10.0 mi South 9.2 mph - N/A   Clear
1:15 AM 45.5 °F 41.3 °F 35.2 °F 67% 30.00 in 10.0 mi South 8.1 mph - N/A   Clear
1:35 AM 44.6 °F 40.2 °F 35.4 °F 70% 30.00 in 10.0 mi South 8.1 mph - N/A   Clear
1:55 AM 44.6 °F 40.2 °F 35.6 °F 71% 30.01 in 10.0 mi South 8.1 mph - N/A   Clear
2:15 AM 44.8 °F 39.9 °F 35.6 °F 70% 30.00 in 10.0 mi South 9.2 mph - N/A   Clear
2:35 AM 45.1 °F 40.3 °F 36.1 °F 71% 30.00 in 10.0 mi South 9.2 mph - N/A   Clear
2:55 AM 44.6 °F 39.7 °F 37.4 °F 76% 29.99 in 10.0 mi South 9.2 mph - N/A   Clear
3:15 AM 45.1 °F 39.9 °F 36.5 °F 72% 29.99 in 10.0 mi SSW 10.4 mph - N/A   Clear
3:35 AM 45.9 °F 40.8 °F 36.9 °F 71% 29.99 in 10.0 mi South 10.4 mph - N/A   Clear
3:55 AM 45.9 °F 40.8 °F 37.2 °F 72% 29.98 in 10.0 mi SSW 10.4 mph - N/A   Clear
4:15 AM 45.5 °F 40.8 °F 37.4 °F 73% 29.98 in 10.0 mi SSW 9.2 mph - N/A   Clear
4:35 AM 45.7 °F 40.6 °F 37.4 °F 73% 29.98 in 10.0 mi South 10.4 mph - N/A   Clear
4:55 AM 45.5 °F 40.8 °F 37.6 °F 74% 29.98 in 10.0 mi SSW 9.2 mph - N/A   Clear
5:15 AM 45.5 °F 40.3 °F 37.6 °F 74% 29.98 in 10.0 mi South 10.4 mph - N/A   Clear
5:35 AM 44.8 °F 39.4 °F 37.8 °F 76% 29.98 in 10.0 mi South 10.4 mph - N/A   Clear
5:55 AM 43.5 °F 38.9 °F 37.4 °F 79% 29.98 in 10.0 mi South 8.1 mph - N/A   Clear
6:15 AM 42.4 °F 37.5 °F 37.4 °F 82% 29.99 in 10.0 mi South 8.1 mph - N/A   Clear
6:35 AM 42.4 °F 37.0 °F 37.4 °F 82% 29.99 in 10.0 mi South 9.2 mph - N/A   Clear
6:55 AM 42.8 °F 38.0 °F 37.4 °F 81% 29.98 in 10.0 mi South 8.1 mph - N/A   Clear
7:15 AM 43.0 °F 37.2 °F 37.8 °F 82% 29.98 in 10.0 mi South 10.4 mph - N/A   Clear
7:35 AM 43.7 °F 38.1 °F 38.3 °F 81% 29.98 in 10.0 mi South 10.4 mph - N/A   Clear
7:55 AM 45.1 °F 39.1 °F 39.2 °F 80% 29.98 in 10.0 mi South 12.7 mph - N/A   Clear
8:15 AM 46.6 °F - 39.7 °F 77% 29.98 in 10.0 mi South 10.4 mph - N/A   Clear
8:35 AM 49.1 °F - 40.1 °F 71% 29.98 in 10.0 mi SSW 12.7 mph - N/A   Clear
8:55 AM 50.7 °F - 40.3 °F 67% 29.98 in 10.0 mi South 13.8 mph - N/A   Clear
9:15 AM 51.8 °F - 40.1 °F 64% 29.97 in 10.0 mi SSW 13.8 mph 20.7 mph N/A   Clear
9:35 AM 53.4 °F - 40.8 °F 62% 29.97 in 10.0 mi SSW 15.0 mph - N/A   Clear
9:55 AM 55.2 °F - 40.6 °F 58% 29.97 in 10.0 mi SSW 18.4 mph 24.2 mph N/A   Clear
10:15 AM 55.4 °F - 40.8 °F 58% 29.97 in 10.0 mi SSW 15.0 mph - N/A   Clear
10:35 AM 59.4 °F - 40.8 °F 50% 29.97 in 10.0 mi SSW 16.1 mph 21.9 mph N/A   Clear
10:55 AM 60.4 °F - 40.1 °F 47% 29.97 in 10.0 mi SW 17.3 mph 23.0 mph N/A   Clear
11:15 AM 61.7 °F - 39.6 °F 44% 29.96 in 10.0 mi SW 17.3 mph 21.9 mph N/A   Clear
11:35 AM 63.0 °F - 39.0 °F 41% 29.95 in 10.0 mi SW 18.4 mph 24.2 mph N/A   Clear
11:55 AM 63.5 °F - 39.2 °F 41% 29.95 in 10.0 mi SW 17.3 mph 25.3 mph N/A   Clear
12:15 PM 65.1 °F - 39.7 °F 39% 29.93 in 10.0 mi SSW 17.3 mph 20.7 mph N/A   Clear
12:35 PM 65.8 °F - 39.4 °F 38% 29.93 in 10.0 mi SW 15.0 mph - N/A   Clear
12:55 PM 66.0 °F - 39.6 °F 38% 29.92 in 10.0 mi SW 19.6 mph 26.5 mph N/A   Clear
1:15 PM 66.2 °F - 39.9 °F 38% 29.90 in 10.0 mi SSW 23.0 mph 29.9 mph N/A   Clear
1:35 PM 66.9 °F - 40.1 °F 37% 29.89 in 10.0 mi SW 16.1 mph 23.0 mph N/A   Clear
1:55 PM 67.3 °F - 39.9 °F 37% 29.89 in 10.0 mi SSW 18.4 mph 23.0 mph N/A   Clear
2:15 PM 68.0 °F - 40.1 °F 36% 29.89 in 10.0 mi WSW 19.6 mph 24.2 mph N/A   Clear
2:35 PM 68.2 °F - 39.7 °F 35% 29.88 in 10.0 mi SW 16.1 mph 23.0 mph N/A   Clear
2:55 PM 68.5 °F - 40.5 °F 36% 29.88 in 10.0 mi SW 20.7 mph 26.5 mph N/A   Clear
3:15 PM 68.2 °F - 40.1 °F 36% 29.87 in 10.0 mi WSW 18.4 mph 24.2 mph N/A   Scattered Clouds
3:35 PM 68.4 °F - 40.6 °F 36% 29.88 in 10.0 mi WSW 16.1 mph 21.9 mph N/A   Scattered Clouds
3:55 PM 68.2 °F - 40.3 °F 36% 29.87 in 10.0 mi SW 17.3 mph 20.7 mph N/A   Clear
4:15 PM 68.9 °F - 40.3 °F 35% 29.87 in 10.0 mi SSW 18.4 mph 21.9 mph N/A   Clear
4:35 PM 67.3 °F - 41.0 °F 38% 29.87 in 10.0 mi WSW 16.1 mph 23.0 mph N/A   Mostly Cloudy
4:55 PM 66.4 °F - 41.5 °F 40% 29.87 in 10.0 mi SW 17.3 mph 25.3 mph N/A   Overcast
5:15 PM 65.8 °F - 41.9 °F 42% 29.87 in 10.0 mi SW 11.5 mph - N/A   Overcast
5:35 PM 65.5 °F - 42.4 °F 43% 29.88 in 10.0 mi WSW 9.2 mph 17.3 mph N/A   Overcast
5:55 PM 61.9 °F - 40.5 °F 45% 29.88 in 10.0 mi NW 6.9 mph 18.4 mph N/A   Overcast
6:15 PM 60.8 °F - 41.2 °F 48% 29.90 in 10.0 mi NW 11.5 mph - N/A   Overcast
6:35 PM 59.4 °F - 43.0 °F 55% 29.92 in 10.0 mi NNW 24.2 mph 34.5 mph N/A   Overcast
6:55 PM 55.4 °F - 41.7 °F 60% 29.93 in 10.0 mi NNW 26.5 mph 32.2 mph N/A   Overcast
7:15 PM 52.9 °F - 42.3 °F 67% 29.95 in 10.0 mi NNW 26.5 mph 36.8 mph N/A   Overcast
7:35 PM 50.0 °F - 44.4 °F 81% 29.96 in 10.0 mi NNW 16.1 mph 25.3 mph N/A Rain Light Rain
7:55 PM 48.0 °F - 44.2 °F 87% 29.98 in 7.0 mi NW 17.3 mph 27.6 mph N/A Rain Rain
8:15 PM 46.4 °F 40.7 °F 45.5 °F 97% 29.99 in 10.0 mi NW 12.7 mph - 0.02 in Rain Rain
8:35 PM 45.5 °F 40.3 °F 45.0 °F 98% 29.99 in 7.0 mi NW 10.4 mph - 0.09 in Rain Rain
8:55 PM 45.5 °F 41.8 °F 45.0 °F 98% 29.99 in 10.0 mi NW 6.9 mph - 0.10 in Rain Light Rain
9:15 PM 45.5 °F 42.5 °F 45.0 °F 98% 30.00 in 10.0 mi NW 5.8 mph - N/A Rain Light Rain
9:35 PM 45.5 °F 44.2 °F 45.0 °F 98% 30.01 in 10.0 mi WNW 3.5 mph - 0.01 in Rain Rain
9:55 PM 45.5 °F 43.2 °F 45.1 °F 99% 30.02 in 10.0 mi WNW 4.6 mph - 0.01 in Rain Light Rain
10:15 PM 45.1 °F 42.0 °F 44.8 °F 99% 30.02 in 10.0 mi WNW 5.8 mph - N/A   Overcast
10:35 PM 45.0 °F 42.6 °F 44.8 °F 99% 30.02 in 10.0 mi WNW 4.6 mph - N/A   Overcast
10:55 PM 45.0 °F 41.8 °F 44.8 °F 99% 30.03 in 10.0 mi West 5.8 mph - N/A   Overcast
11:15 PM 45.0 °F 40.6 °F 44.8 °F 99% 30.03 in 10.0 mi West 8.1 mph - N/A   Overcast
11:35 PM 45.5 °F 41.8 °F 45.1 °F 99% 30.04 in 10.0 mi West 6.9 mph - N/A   Overcast
11:55 PM 44.2 °F 39.7 °F 43.9 °F 99% 30.04 in 10.0 mi West 8.1 mph - N/A   Mostly Cloudy